User: anonymous   Login
Location: *
(50.3440°N, 18.6237°E)
Time: 18:33:03
(UTC+00:00)
Language:

FLOCK 3S 1 - Orbit

View from above orbital plane
View from above orbital plane
View from above satellite
View from above satellite

Ground track
Ground track

The orbit data is extracted from the following two-line orbital elements,

1 43769U 18099M   21172.47764849  .00000770  00000-0  74868-4 0  9999
2 43769  97.6623 242.0929 0015234  47.7531 312.4979 14.95307966139057
Epoch (UTC): 21 June 2021 11:27:48
Eccentricity: 0.0015234
inclination: 97.6623°
perigee height: 571 km
apogee height: 592 km
right ascension of ascending node: 242.0929°
argument of perigee: 47.7531°
revolutions per day: 14.95307966
mean anomaly at epoch: 312.4979°
orbit number at epoch: 13905

The dashed part of the orbit path shows where the satellite is in the earth's shadow,  

DLR